Notices

What's New in latest Release from April 7th, 2021:

- Updated Glossary, including Speed of Maximum Gust, and Total Hourly Precipitation

- Updated national and regional climate services offices contacts and prices information

- Addition of station inventory lists for 1981-2010, 1971-2000, and 1961-1990 Normals.

If you haven't already, please take our survey and provide feedback about our website: https://eccc.sondage-survey.ca/f/LanguageSelection.aspx?s=442ca660-fcf1-47c0-95a9-59707d6fd709

Hourly Data Report for July 26, 2019

TORONTO CITY
ONTARIO
Current Station Operator: ECCC - MSC

43°40'00.000" N
79°24'00.000" W
112.50 m
6158355
71508
XTO

Download Data

Hourly Data (July 2019)
Hourly Data Report for July 26, 2019
TIME
LST
Temp Definition
°C
Dew Point Definition
°C
Rel Hum Definition
%
Precip. Amount Definition
mm

Wind Dir Definition
10's deg

Wind Spd Definition
km/h
Visibility Definition
km
Stn Press Definition
kPa
Hmdx Definition


Wind Chill Definition


Weather Definition


00:00 22.3 14.4 61 0.0       100.84 26   LegendNANA
01:00 22.5 13.9 58 0.0       100.87 26   LegendNANA
02:00 21.2 14.1 64 0.0       100.90 25   LegendNANA
03:00 19.8 14.4 71 0.0       100.90     LegendNANA
04:00 19.1 14.6 75 0.0       100.94     LegendNANA
05:00 18.7 14.8 78 0.0       100.97     LegendNANA
06:00 19.1 15.1 78 0.0       100.99     LegendNANA
07:00 22.0 14.9 64 0.0       101.04 26   LegendNANA
08:00 23.5 14.5 57 0.0       101.08 27   LegendNANA
09:00 23.8 15.9 61 0.0       101.11 28   LegendNANA
10:00 24.7 16.0 58 0.0       101.13 29   LegendNANA
11:00 25.2 15.5 55 0.0       101.13 29   LegendNANA
12:00 27.1 15.8 50 0.0       101.11 32   LegendNANA
13:00 28.1 16.8 50 0.0       101.06 33   LegendNANA
14:00 28.4 13.7 41 0.0       101.02 32   LegendNANA
15:00 28.0 15.8 48 0.0       100.98 32   LegendNANA
16:00 27.9 15.8 48 0.0       100.96 32   LegendNANA
17:00 27.0 16.0 51 0.0       100.92 32   LegendNANA
18:00 26.2 14.9 50 0.0       100.90 30   LegendNANA
19:00 26.3 12.5 43 0.0       100.91 29   LegendNANA
20:00 24.8 13.3 49 0.0       100.93 28   LegendNANA
21:00 23.9 13.6 53 0.0       100.94 27   LegendNANA
22:00 22.9 14.5 59 0.0       100.94 27   LegendNANA
23:00 22.8 14.9 61 0.0       100.93 27   LegendNANA

Notes on Data Quality.

Legend

  • E = Estimated
  • M = Missing
  • NA = Not Available*
  • [empty] = Indicates an unobserved value
Date modified: